ITY1765 LIML-LICT

Flight info

Callsign ITY1765
Flight time N/A
Altitude 35000
Route LOGDI DCT LOMED DCT TAQ DCT PEPIX DCT GIANO
Aircraft A21N/M-SDE2E3FGHIRWXY/LB1

Departure

Time 2026-04-28 15:29
Airport Milano Linate Airport (LIML)

Arrival

Time N/A
Airport Vincenzo Florio Airport Trapani-Birgi (LICT)
Time Latitude Longitude Altitude Speed Heading
2026-04-28 15:01 45.45972 9.27847 365 ft 0 kts 360°
2026-04-28 15:20 45.45958 9.27847 365 ft 4 kts
2026-04-28 15:20 45.45932 9.27839 365 ft 4 kts 24°
2026-04-28 15:21 45.45912 9.27818 369 ft 4 kts 62°
2026-04-28 15:21 45.45908 9.27796 365 ft 1 kts 90°
2026-04-28 15:21 45.45908 9.27792 365 ft 0 kts 90°
2026-04-28 15:23 45.45908 9.27848 368 ft 10 kts 89°
2026-04-28 15:24 45.45906 9.27965 370 ft 13 kts 105°
2026-04-28 15:24 45.45812 9.27983 365 ft 16 kts 185°
2026-04-28 15:24 45.45691 9.27982 365 ft 19 kts 179°
2026-04-28 15:24 45.45552 9.27989 371 ft 21 kts 177°
2026-04-28 15:25 45.45399 9.27979 365 ft 23 kts 193°
2026-04-28 15:25 45.45244 9.27882 367 ft 25 kts 205°
2026-04-28 15:25 45.45061 9.27878 365 ft 28 kts 174°
2026-04-28 15:25 45.44864 9.27923 370 ft 30 kts 164°
2026-04-28 15:26 45.44651 9.27978 366 ft 32 kts 172°
2026-04-28 15:26 45.44421 9.27998 367 ft 34 kts 178°
2026-04-28 15:26 45.44177 9.28014 368 ft 36 kts 176°
2026-04-28 15:26 45.43922 9.28040 366 ft 37 kts 175°
2026-04-28 15:27 45.43659 9.28074 368 ft 39 kts 174°
2026-04-28 15:27 45.43470 9.28082 366 ft 13 kts 218°
2026-04-28 15:27 45.43448 9.27950 367 ft 15 kts 264°
2026-04-28 15:27 45.43483 9.27821 368 ft 17 kts
2026-04-28 15:28 45.43609 9.27819 367 ft 25 kts 354°
2026-04-28 15:28 45.44065 9.27758 366 ft 104 kts 356°
2026-04-28 15:28 45.45008 9.27654 374 ft 163 kts 356°
2026-04-28 15:28 45.46142 9.27537 933 ft 164 kts 357°
2026-04-28 15:29 45.47290 9.27740 1567 ft 170 kts 11°
2026-04-28 15:29 45.48496 9.27919 2281 ft 181 kts
2026-04-28 15:29 45.49793 9.28088 2974 ft 194 kts
2026-04-28 15:29 45.51177 9.28359 3603 ft 212 kts 20°
2026-04-28 15:30 45.52458 9.29603 4039 ft 238 kts 47°
2026-04-28 15:30 45.53316 9.31716 4510 ft 260 kts 78°
2026-04-28 15:30 45.53221 9.34301 5210 ft 267 kts 112°
2026-04-28 15:30 45.52163 9.36439 6086 ft 267 kts 143°
2026-04-28 15:31 45.50618 9.37921 7074 ft 270 kts 148°
2026-04-28 15:31 45.49022 9.39388 7926 ft 276 kts 148°
2026-04-28 15:31 45.47418 9.40934 8818 ft 281 kts 147°
2026-04-28 15:31 45.45802 9.42552 9711 ft 286 kts 146°
2026-04-28 15:32 45.44168 9.44223 10469 ft 297 kts 146°
2026-04-28 15:32 45.43033 9.45394 10721 ft 311 kts 146°
2026-04-28 15:32 45.40603 9.47918 11427 ft 332 kts 146°
2026-04-28 15:32 45.38725 9.49884 12226 ft 338 kts 145°
2026-04-28 15:33 45.36817 9.51890 13044 ft 343 kts 146°
2026-04-28 15:33 45.34885 9.53915 13863 ft 347 kts 146°
2026-04-28 15:33 45.32952 9.55944 14569 ft 352 kts 146°
2026-04-28 15:33 45.30965 9.58024 15272 ft 358 kts 146°
2026-04-28 15:34 45.28941 9.60136 15985 ft 363 kts 147°
2026-04-28 15:34 45.26862 9.62300 16702 ft 369 kts 147°
2026-04-28 15:34 45.24815 9.64437 17381 ft 373 kts 147°
2026-04-28 15:34 45.22674 9.66672 18072 ft 379 kts 147°
2026-04-28 15:35 45.20532 9.68900 18680 ft 384 kts 147°
2026-04-28 15:35 45.16201 9.73390 19882 ft 391 kts 147°
2026-04-28 15:35 45.14001 9.75682 20528 ft 393 kts 147°
2026-04-28 15:36 45.11791 9.77981 21155 ft 396 kts 147°
2026-04-28 15:36 45.09553 9.80294 21757 ft 399 kts 147°
2026-04-28 15:36 45.07300 9.82620 22329 ft 402 kts 147°
2026-04-28 15:36 45.05035 9.84968 22880 ft 405 kts 147°
2026-04-28 15:37 45.02755 9.87329 23412 ft 408 kts 147°
2026-04-28 15:37 45.00451 9.89704 23845 ft 411 kts 147°
2026-04-28 15:37 44.98132 9.92095 24244 ft 414 kts 147°
2026-04-28 15:37 44.96584 9.93693 24558 ft 416 kts 147°
2026-04-28 15:38 44.93439 9.96935 25187 ft 420 kts 147°
2026-04-28 15:38 44.91064 9.99363 25644 ft 423 kts 147°
2026-04-28 15:38 44.88671 10.01809 26097 ft 427 kts 147°
2026-04-28 15:38 44.86261 10.04278 26526 ft 430 kts 147°
2026-04-28 15:39 44.83837 10.06761 26948 ft 433 kts 147°
2026-04-28 15:39 44.81386 10.09264 27362 ft 436 kts 147°
2026-04-28 15:39 44.78925 10.11778 27764 ft 439 kts 147°
2026-04-28 15:39 44.76447 10.14320 28163 ft 442 kts 147°
2026-04-28 15:40 44.73958 10.16867 28552 ft 444 kts 147°
2026-04-28 15:40 44.71457 10.19444 28922 ft 448 kts 144°
2026-04-28 15:40 44.69039 10.22248 29300 ft 452 kts 142°
2026-04-28 15:40 44.66642 10.25111 29688 ft 454 kts 142°
2026-04-28 15:41 44.64227 10.28005 30080 ft 457 kts 142°
2026-04-28 15:41 44.61802 10.30901 30406 ft 459 kts 142°
2026-04-28 15:41 44.59363 10.33803 30792 ft 461 kts 142°
2026-04-28 15:41 44.56902 10.36722 31092 ft 464 kts 142°
2026-04-28 15:42 44.54432 10.39647 31382 ft 467 kts 142°
2026-04-28 15:42 44.51941 10.42595 31701 ft 469 kts 142°
2026-04-28 15:42 44.49443 10.45551 31973 ft 471 kts 142°
2026-04-28 15:42 44.46935 10.48519 32238 ft 474 kts 142°
2026-04-28 15:43 44.44411 10.51501 32565 ft 474 kts 142°
2026-04-28 15:43 44.41894 10.54475 32898 ft 475 kts 142°
2026-04-28 15:43 44.39364 10.57458 33249 ft 475 kts 142°
2026-04-28 15:43 44.36841 10.60428 33573 ft 475 kts 142°
2026-04-28 15:44 44.34315 10.63400 33927 ft 475 kts 142°
2026-04-28 15:44 44.31788 10.66371 34223 ft 475 kts 142°
2026-04-28 15:44 44.29261 10.69340 34489 ft 474 kts 142°
2026-04-28 15:44 44.26735 10.72299 34739 ft 474 kts 142°
2026-04-28 15:45 44.24203 10.75260 34997 ft 474 kts 142°
2026-04-28 15:45 44.21677 10.78214 35243 ft 474 kts 142°
2026-04-28 15:45 44.19149 10.81165 35486 ft 474 kts 142°
2026-04-28 15:45 44.16658 10.84073 35698 ft 473 kts 142°
2026-04-28 15:46 44.14134 10.87017 35900 ft 473 kts 142°
2026-04-28 15:46 44.11611 10.89956 36132 ft 473 kts 142°
2026-04-28 15:46 44.09084 10.92896 36303 ft 473 kts 142°
2026-04-28 15:46 44.06561 10.95825 36504 ft 473 kts 142°
2026-04-28 15:47 44.03987 10.98662 36695 ft 471 kts 148°
2026-04-28 15:47 44.01151 11.00876 36871 ft 466 kts 160°
2026-04-28 15:47 43.98062 11.02368 37011 ft 463 kts 167°
2026-04-28 15:47 43.94965 11.03618 37053 ft 463 kts 167°
2026-04-28 15:48 43.88794 11.06093 37011 ft 462 kts 167°
2026-04-28 15:48 43.82635 11.08631 36994 ft 461 kts 167°
2026-04-28 15:49 43.76482 11.11166 36994 ft 461 kts 167°
2026-04-28 15:49 43.70372 11.13675 36994 ft 461 kts 167°
2026-04-28 15:50 43.64221 11.16197 36992 ft 460 kts 167°
2026-04-28 15:50 43.58066 11.18709 37011 ft 461 kts 167°
2026-04-28 15:51 43.51928 11.21223 37013 ft 460 kts 167°
2026-04-28 15:51 43.46820 11.23299 37009 ft 461 kts 167°
2026-04-28 15:52 43.40666 11.25791 37020 ft 460 kts 167°
2026-04-28 15:52 43.34533 11.28286 37023 ft 459 kts 167°
2026-04-28 15:53 43.28398 11.30768 37025 ft 460 kts 167°
2026-04-28 15:53 43.22243 11.33264 37019 ft 460 kts 167°
2026-04-28 15:54 43.16112 11.35734 37026 ft 459 kts 167°
2026-04-28 15:54 43.09980 11.38201 37035 ft 459 kts 167°
2026-04-28 15:55 43.03840 11.40666 37030 ft 462 kts 167°
2026-04-28 15:55 42.97699 11.43120 37041 ft 459 kts 167°
2026-04-28 15:56 42.91573 11.45565 37048 ft 459 kts 167°
2026-04-28 15:56 42.85435 11.48014 37042 ft 459 kts 167°
2026-04-28 15:57 42.79302 11.50463 37048 ft 459 kts 167°
2026-04-28 15:57 42.73175 11.52897 37047 ft 459 kts 167°
2026-04-28 15:58 42.67044 11.55332 37056 ft 460 kts 167°
2026-04-28 15:58 42.60921 11.57760 37049 ft 457 kts 167°
2026-04-28 15:59 42.54810 11.60181 37054 ft 458 kts 167°
2026-04-28 15:59 42.48691 11.62588 37052 ft 458 kts 167°
2026-04-28 16:00 42.42568 11.64991 37052 ft 458 kts 167°
2026-04-28 16:00 42.36459 11.67395 37056 ft 457 kts 167°
2026-04-28 16:01 42.30350 11.69776 37058 ft 457 kts 167°
2026-04-28 16:01 42.24239 11.72166 37056 ft 457 kts 167°
2026-04-28 16:02 42.18156 11.74711 37055 ft 458 kts 165°
2026-04-28 16:02 42.12094 11.77375 37078 ft 458 kts 165°
2026-04-28 16:03 42.06037 11.80032 37109 ft 458 kts 165°
2026-04-28 16:03 41.99979 11.82676 37137 ft 458 kts 165°
2026-04-28 16:04 41.96915 11.83850 37304 ft 456 kts 172°
2026-04-28 16:04 41.93792 11.84533 37514 ft 454 kts 175°
2026-04-28 16:04 41.90806 11.85092 37709 ft 453 kts 175°
2026-04-28 16:04 41.87686 11.85683 37903 ft 453 kts 175°
2026-04-28 16:05 41.84566 11.86303 38085 ft 453 kts 175°
2026-04-28 16:05 41.81451 11.86939 38247 ft 453 kts 175°
2026-04-28 16:05 41.78335 11.87580 38393 ft 453 kts 175°
2026-04-28 16:05 41.75227 11.88215 38592 ft 452 kts 175°
2026-04-28 16:06 41.72154 11.88846 38788 ft 452 kts 175°
2026-04-28 16:06 41.69047 11.89481 38941 ft 451 kts 175°
2026-04-28 16:06 41.65942 11.90117 39077 ft 452 kts 175°
2026-04-28 16:06 41.62819 11.90753 39096 ft 453 kts 175°
2026-04-28 16:07 41.56585 11.92020 39065 ft 452 kts 175°
2026-04-28 16:08 41.47263 11.93910 39061 ft 452 kts 175°
2026-04-28 16:08 41.41043 11.95176 39062 ft 452 kts 175°
2026-04-28 16:09 41.31719 11.97067 39062 ft 452 kts 175°
2026-04-28 16:10 41.22405 11.98941 39058 ft 451 kts 176°
2026-04-28 16:10 41.13080 12.00821 39051 ft 451 kts 176°
2026-04-28 16:11 41.00667 12.03309 39063 ft 451 kts 176°
2026-04-28 16:12 40.91357 12.05164 39054 ft 452 kts 176°
2026-04-28 16:13 40.82024 12.07025 39062 ft 452 kts 176°
2026-04-28 16:13 40.75812 12.08043 38902 ft 444 kts 181°
2026-04-28 16:14 40.69635 12.08406 38295 ft 446 kts 183°
2026-04-28 16:14 40.63417 12.08803 37739 ft 448 kts 182°
2026-04-28 16:15 40.57213 12.09228 37201 ft 450 kts 182°
2026-04-28 16:15 40.54043 12.09447 36933 ft 450 kts 181°
2026-04-28 16:15 40.50958 12.09662 36673 ft 449 kts 181°
2026-04-28 16:16 40.44733 12.10088 36145 ft 447 kts 181°
2026-04-28 16:16 40.41589 12.10307 35888 ft 445 kts 181°
2026-04-28 16:17 40.35470 12.10735 35392 ft 442 kts 181°
2026-04-28 16:17 40.32399 12.10945 35139 ft 440 kts 181°
2026-04-28 16:17 40.29346 12.11153 34897 ft 439 kts 181°
2026-04-28 16:17 40.26305 12.11360 34650 ft 437 kts 181°
2026-04-28 16:18 40.23271 12.11564 34415 ft 436 kts 181°
2026-04-28 16:18 40.20244 12.11766 34180 ft 435 kts 181°
2026-04-28 16:18 40.17230 12.11966 33929 ft 433 kts 180°
2026-04-28 16:18 40.14230 12.12172 33658 ft 431 kts 180°
2026-04-28 16:19 40.11231 12.12378 33384 ft 430 kts 180°
2026-04-28 16:19 40.08249 12.12582 33115 ft 428 kts 180°
2026-04-28 16:19 40.05282 12.12784 32851 ft 427 kts 180°
2026-04-28 16:19 40.02323 12.12984 32589 ft 425 kts 180°
2026-04-28 16:20 39.99376 12.13182 32331 ft 423 kts 180°
2026-04-28 16:20 39.96435 12.13380 32074 ft 422 kts 180°
2026-04-28 16:20 39.93508 12.13578 31820 ft 421 kts 180°
2026-04-28 16:20 39.90594 12.13777 31569 ft 419 kts 180°
2026-04-28 16:21 39.87686 12.13975 31309 ft 418 kts 179°
2026-04-28 16:21 39.84792 12.14174 31079 ft 416 kts 179°
2026-04-28 16:21 39.81904 12.14372 30819 ft 415 kts 180°
2026-04-28 16:21 39.79023 12.14567 30572 ft 414 kts 180°
2026-04-28 16:22 39.76156 12.14758 30332 ft 412 kts 180°
2026-04-28 16:22 39.73293 12.14951 30087 ft 411 kts 179°
2026-04-28 16:22 39.70447 12.15141 29807 ft 409 kts 179°
2026-04-28 16:22 39.67608 12.15330 29526 ft 407 kts 179°
2026-04-28 16:23 39.64791 12.15519 29243 ft 405 kts 179°
2026-04-28 16:23 39.61974 12.15708 28828 ft 402 kts 179°
2026-04-28 16:23 39.59195 12.15895 28354 ft 399 kts 179°
2026-04-28 16:23 39.56427 12.16080 27877 ft 397 kts 179°
2026-04-28 16:24 39.53674 12.16264 27400 ft 395 kts 179°
2026-04-28 16:24 39.50933 12.16449 26903 ft 394 kts 179°
2026-04-28 16:24 39.48198 12.16632 26422 ft 393 kts 179°
2026-04-28 16:24 39.45474 12.16814 25944 ft 392 kts 178°
2026-04-28 16:25 39.42752 12.16997 25460 ft 391 kts 178°
2026-04-28 16:25 39.40041 12.17177 25002 ft 389 kts 178°
2026-04-28 16:25 39.37336 12.17355 24510 ft 389 kts 178°
2026-04-28 16:25 39.34635 12.17533 24018 ft 389 kts 178°
2026-04-28 16:26 39.31928 12.17718 23521 ft 389 kts 178°
2026-04-28 16:26 39.29226 12.17900 22980 ft 387 kts 178°
2026-04-28 16:26 39.26551 12.18079 22464 ft 383 kts 178°
2026-04-28 16:26 39.23899 12.18259 21944 ft 379 kts 178°
2026-04-28 16:27 39.21280 12.18435 21471 ft 375 kts 178°
2026-04-28 16:27 39.18686 12.18603 20985 ft 371 kts 178°
2026-04-28 16:27 39.13585 12.18939 20074 ft 363 kts 178°
2026-04-28 16:28 39.11072 12.19105 19642 ft 360 kts 178°
2026-04-28 16:28 39.09423 12.19214 19363 ft 357 kts 178°
2026-04-28 16:28 39.06128 12.19433 18807 ft 352 kts 177°
2026-04-28 16:28 39.03691 12.19593 18396 ft 349 kts 177°
2026-04-28 16:29 38.98896 12.19909 17533 ft 341 kts 177°
2026-04-28 16:29 38.94252 12.20216 16743 ft 332 kts 178°
2026-04-28 16:30 38.91960 12.20366 16360 ft 328 kts 178°
2026-04-28 16:30 38.89663 12.20516 15998 ft 325 kts 179°
2026-04-28 16:30 38.87436 12.20662 15662 ft 325 kts 179°
2026-04-28 16:30 38.85176 12.20812 15321 ft 325 kts 179°